Skip Page Navigation
NASA JPL Caltech
NASA Logo - Jet Propulsion Laboratory + View the NASA Portal
+ Center for Near-Earth Object Studies
JPL Home Earth Solar System Stars & Galaxies Technology
JPL Solar System Dynamics
BODIES ORBITS EPHEMERIDES TOOLS PHYSICAL DATA DISCOVERY FAQ SITE MAP
IMPORTANT: The SSD Announcement email list is now available. Major changes are coming in the near future, including possible hostname and/or URL changes. To be notified of such changes, subscribe to this email list.

Please visit this page for more details.


JPL Small-Body Database Browser
Search: [ help ]  
347876 (2002 TF26)
Classification: Outer Main-belt Asteroid          SPK-ID: 2347876
Ephemeris | Orbit Diagram | Orbital Elements | Mission Design | Physical Parameters | Discovery Circumstances | Close-Approach Data ]

[ show orbit diagram ]
Orbital Elements at Epoch 2459000.5 (2020-May-31.0) TDB
Reference: JPL 12 (heliocentric ecliptic J2000)
 Element Value Uncertainty (1-sigma)   Units 
e .1469339545619312 6.0168e-08  
a 3.207250095818409 3.5955e-08 au
q 2.735996155970677 2.0755e-07 au
i 5.243261659017113 6.0724e-06 deg
node 42.80296164479633 6.8367e-05 deg
peri 349.4673823502404 7.1895e-05 deg
M 13.66574461127858 2.2203e-05 deg
tp 2458920.860510672219
(2020-Mar-12.36051067)
0.00012887 TDB
period 2097.962238686868
5.74
3.5279e-05
9.659e-08
d
yr
n .1715950808653863 2.8855e-09 deg/d
Q 3.678504035666141 4.1238e-08 au
  Orbit Determination Parameters
   # obs. used (total)      186  
   data-arc span      7120 days (19.49 yr)  
   first obs. used      2000-04-25  
   last obs. used      2019-10-23  
   planetary ephem.      DE431  
   SB-pert. ephem.      SB431-N16  
   condition code      0  
   norm. resid. RMS      .5156  
   source      ORB  
   producer      Otto Matic  
   solution date      2019-Nov-08 10:35:51  

Additional Information
 Earth MOID = 1.74229 au 
 Jupiter MOID = 1.75902 au 
 T_jup = 3.169 
[ show covariance matrix ]

Ephemeris | Orbit Diagram | Orbital Elements | Mission Design | Physical Parameters | Discovery Circumstances | Close-Approach Data ]

Physical Parameter Table
Parameter Symbol Value Units Sigma Reference Notes
absolute magnitude H 15.5   n/a MPO494817  

347876 (2002 TF26)          Discovered 2002-Oct-02 by LINEAR at Socorro
Reference: 20121228/Numbers.arcLast Updated: 2013-01-02

[ show close-approach data ]
Alternate Designations
 2002 TF26 = 2008 RD115 
Ephemeris | Orbit Diagram | Orbital Elements | Mission Design | Physical Parameters | Discovery Circumstances | Close-Approach Data ]
ABOUT SSD CREDITS/AWARDS PRIVACY/COPYRIGHT GLOSSARY LINKS
FirstGov 2020-Feb-21 07:22 UT
(server date/time)  
NASA Home Page
Site Manager:   Ryan S. Park
Webmaster  Alan B. Chamberlin